• In Belarus
  • List of Countries
  • For 7 days
  • Water Temperature
  • Satellite Maps
  • Weather Map
  • Weather Widgets
  • user-avatar
    Login

    Hourly Weather Konstantyna

    Today, 21 August, Monday

    Time Temperature Precipitation Wind Pressure Humidity
    00:00 +24°C° 0 mm 1 mps 713 mmHg 64%
    01:00 +23°C° 0 mm 1 mps 712 mmHg 66%
    02:00 +23°C° 0 mm 1 mps 712 mmHg 68%
    03:00 +23°C° 0 mm 1 mps 712 mmHg 70%
    04:00 +23°C° 0 mm 1 mps 712 mmHg 69%
    05:00 +23°C° 0 mm 1 mps 712 mmHg 69%
    06:00 +23°C° 0 mm 1 mps 712 mmHg 67%
    07:00 +24°C° 0 mm 2 mps 712 mmHg 58%
    08:00 +25°C° 0 mm 2 mps 712 mmHg 50%
    09:00 +27°C° 0 mm 2 mps 713 mmHg 42%
    10:00 +28°C° 0 mm 3 mps 713 mmHg 38%
    11:00 +29°C° 0 mm 3 mps 713 mmHg 34%
    12:00 +32°C° 0 mm 4 mps 713 mmHg 31%
    13:00 +32°C° 0 mm 4 mps 712 mmHg 31%
    14:00 +32°C° 0 mm 4 mps 712 mmHg 31%
    15:00 +32°C° 0 mm 4 mps 712 mmHg 32%
    16:00 +29°C° 0 mm 4 mps 712 mmHg 36%
    17:00 +28°C° 0 mm 4 mps 712 mmHg 40%
    18:00 +27°C° 0 mm 4 mps 711 mmHg 44%
    19:00 +26°C° 0 mm 3 mps 711 mmHg 49%
    20:00 +25°C° 0 mm 2 mps 711 mmHg 54%
    21:00 +24°C° 0 mm 1 mps 712 mmHg 59%
    22:00 +23°C° 0 mm 1 mps 711 mmHg 61%
    23:00 +23°C° 0 mm 1 mps 711 mmHg 64%

    Tomorrow, 22 August, Tuesday

    Time Temperature Precipitation Wind Pressure Humidity
    00:00 +22°C° 0 mm 1 mps 711 mmHg 66%
    01:00 +22°C° 0 mm 1 mps 711 mmHg 67%
    02:00 +21°C° 0 mm 1 mps 711 mmHg 69%
    03:00 +21°C° 0 mm 1 mps 711 mmHg 70%
    04:00 +21°C° 0 mm 1 mps 711 mmHg 68%
    05:00 +22°C° 0 mm 1 mps 711 mmHg 66%
    06:00 +22°C° 0 mm 1 mps 712 mmHg 64%
    07:00 +24°C° 0 mm 1 mps 712 mmHg 54%
    08:00 +26°C° 0 mm 1 mps 712 mmHg 44%
    09:00 +27°C° 0 mm 1 mps 713 mmHg 34%
    10:00 +29°C° 0 mm 1 mps 712 mmHg 30%
    11:00 +30°C° 0 mm 2 mps 712 mmHg 27%
    12:00 +31°C° 0 mm 2 mps 712 mmHg 23%
    13:00 +33°C° 0 mm 3 mps 712 mmHg 24%
    14:00 +33°C° 0 mm 3 mps 712 mmHg 25%
    15:00 +33°C° 0 mm 3 mps 711 mmHg 25%
    16:00 +32°C° 0 mm 4 mps 711 mmHg 32%
    17:00 +30°C° 0 mm 4 mps 711 mmHg 38%
    18:00 +28°C° 0 mm 4 mps 711 mmHg 45%
    19:00 +27°C° 0 mm 3 mps 711 mmHg 51%
    20:00 +26°C° 0 mm 2 mps 711 mmHg 58%
    21:00 +25°C° 0 mm 2 mps 711 mmHg 64%
    22:00 +24°C° 0 mm 1 mps 711 mmHg 65%
    23:00 +24°C° 0 mm 1 mps 711 mmHg 67%

    Day after tomorrow, 23 August, Wednesday

    Time Temperature Precipitation Wind Pressure Humidity
    00:00 +24°C° 0 mm 1 mps 711 mmHg 69%
    01:00 +24°C° 0 mm 1 mps 711 mmHg 69%
    02:00 +23°C° 0 mm 1 mps 711 mmHg 70%
    03:00 +23°C° 0 mm 1 mps 710 mmHg 71%
    04:00 +23°C° 0 mm 1 mps 711 mmHg 70%
    05:00 +23°C° 0 mm 1 mps 711 mmHg 68%
    06:00 +24°C° 0 mm 1 mps 711 mmHg 67%
    07:00 +26°C° 0 mm 1 mps 712 mmHg 59%
    08:00 +27°C° 0 mm 1 mps 712 mmHg 50%
    09:00 +29°C° 0 mm 1 mps 713 mmHg 42%
    10:00 +30°C° 0 mm 1 mps 713 mmHg 37%
    11:00 +32°C° 0 mm 2 mps 713 mmHg 32%
    12:00 +34°C° 0 mm 2 mps 713 mmHg 26%
    13:00 +34°C° 0 mm 3 mps 712 mmHg 26%
    14:00 +34°C° 0 mm 3 mps 712 mmHg 26%
    15:00 +35°C° 0 mm 4 mps 712 mmHg 26%
    16:00 +33°C° 0 mm 4 mps 712 mmHg 31%
    17:00 +32°C° 0 mm 4 mps 712 mmHg 35%
    18:00 +30°C° 0 mm 4 mps 711 mmHg 40%
    19:00 +29°C° 0 mm 3 mps 712 mmHg 44%
    20:00 +28°C° 0 mm 2 mps 712 mmHg 48%
    21:00 +27°C° 0 mm 2 mps 712 mmHg 51%
    22:00 +26°C° 0 mm 1 mps 712 mmHg 52%
    23:00 +26°C° 0 mm 1 mps 712 mmHg 53%

    24 August, Thursday

    Time Temperature Precipitation Wind Pressure Humidity
    00:00 +25°C° 0 mm 1 mps 712 mmHg 53%
    01:00 +25°C° 0 mm 1 mps 711 mmHg 54%
    02:00 +25°C° 0 mm 1 mps 711 mmHg 54%
    03:00 +25°C° 0 mm 1 mps 711 mmHg 54%
    04:00 +25°C° 0 mm 1 mps 711 mmHg 52%
    05:00 +25°C° 0 mm 1 mps 711 mmHg 51%
    06:00 +26°C° 0 mm 1 mps 712 mmHg 50%
    07:00 +28°C° 0 mm 1 mps 712 mmHg 44%
    08:00 +29°C° 0 mm 1 mps 712 mmHg 38%
    09:00 +31°C° 0 mm 2 mps 713 mmHg 32%
    10:00 +34°C° 0 mm 2 mps 713 mmHg 29%
    11:00 +35°C° 0 mm 2 mps 713 mmHg 25%
    12:00 +36°C° 0 mm 2 mps 713 mmHg 22%
    13:00 +37°C° 0 mm 2 mps 712 mmHg 21%
    14:00 +37°C° 0 mm 3 mps 712 mmHg 21%
    15:00 +37°C° 0 mm 3 mps 712 mmHg 20%
    16:00 +36°C° 0 mm 3 mps 712 mmHg 24%
    17:00 +35°C° 0 mm 3 mps 711 mmHg 27%
    18:00 +34°C° 0 mm 3 mps 711 mmHg 30%
    19:00 +33°C° 0 mm 3 mps 711 mmHg 32%
    20:00 +30°C° 0 mm 2 mps 711 mmHg 35%
    21:00 +29°C° 0 mm 2 mps 712 mmHg 38%
    22:00 +29°C° 0 mm 2 mps 711 mmHg 38%
    23:00 +29°C° 0 mm 1 mps 711 mmHg 39%

    25 August, Friday

    Time Temperature Precipitation Wind Pressure Humidity
    00:00 +28°C° 0 mm 1 mps 711 mmHg 39%
    01:00 +28°C° 0 mm 1 mps 711 mmHg 39%
    02:00 +28°C° 0 mm 1 mps 711 mmHg 40%
    03:00 +27°C° 0 mm 2 mps 710 mmHg 40%
    04:00 +28°C° 0 mm 2 mps 710 mmHg 41%
    05:00 +28°C° 0 mm 2 mps 711 mmHg 42%
    06:00 +28°C° 0 mm 2 mps 711 mmHg 43%
    07:00 +30°C° 0 mm 2 mps 711 mmHg 39%
    08:00 +31°C° 0 mm 3 mps 712 mmHg 35%
    09:00 +34°C° 0 mm 3 mps 712 mmHg 31%
    10:00 +35°C° 0 mm 3 mps 712 mmHg 28%
    11:00 +37°C° 0 mm 2 mps 712 mmHg 24%
    12:00 +38°C° 0 mm 2 mps 711 mmHg 21%
    13:00 +38°C° 0 mm 2 mps 711 mmHg 21%
    14:00 +38°C° 0 mm 3 mps 711 mmHg 20%
    15:00 +39°C° 0 mm 3 mps 710 mmHg 19%
    16:00 +37°C° 0 mm 3 mps 710 mmHg 22%
    17:00 +36°C° 0 mm 3 mps 710 mmHg 25%
    18:00 +35°C° 0 mm 3 mps 710 mmHg 28%
    19:00 +34°C° 0 mm 2 mps 710 mmHg 31%
    20:00 +32°C° 0 mm 2 mps 710 mmHg 34%
    21:00 +31°C° 0 mm 1 mps 710 mmHg 36%
    22:00 +31°C° 0 mm 1 mps 710 mmHg 37%
    23:00 +30°C° 0 mm 1 mps 710 mmHg 37%

    26 August, Saturday

    Time Temperature Precipitation Wind Pressure Humidity
    00:00 +30°C° 0 mm 1 mps 710 mmHg 37%
    01:00 +29°C° 0 mm 2 mps 710 mmHg 38%
    02:00 +29°C° 0 mm 2 mps 709 mmHg 38%
    03:00 +29°C° 0 mm 2 mps 709 mmHg 39%
    04:00 +29°C° 0 mm 2 mps 709 mmHg 39%
    05:00 +29°C° 0 mm 2 mps 709 mmHg 40%
    06:00 +29°C° 0 mm 2 mps 710 mmHg 40%
    07:00 +30°C° 0 mm 2 mps 710 mmHg 36%
    08:00 +32°C° 0 mm 2 mps 710 mmHg 31%
    09:00 +35°C° 0 mm 2 mps 711 mmHg 26%
    10:00 +36°C° 0 mm 2 mps 710 mmHg 24%
    11:00 +37°C° 0 mm 2 mps 710 mmHg 22%
    12:00 +38°C° 0 mm 2 mps 710 mmHg 21%
    13:00 +38°C° 0 mm 2 mps 710 mmHg 20%
    14:00 +39°C° 0 mm 3 mps 710 mmHg 20%
    15:00 +39°C° 0 mm 3 mps 709 mmHg 19%
    16:00 +38°C° 0 mm 3 mps 709 mmHg 22%
    17:00 +37°C° 0 mm 3 mps 709 mmHg 25%
    18:00 +36°C° 0 mm 3 mps 709 mmHg 28%
    19:00 +34°C° 0.1 mm 2 mps 709 mmHg 30%
    20:00 +32°C° 0.1 mm 2 mps 709 mmHg 33%
    21:00 +31°C° 0.1 mm 1 mps 709 mmHg 36%
    22:00 +31°C° 0.1 mm 1 mps 709 mmHg 36%
    23:00 +31°C° 0.1 mm 1 mps 709 mmHg 36%
    Show more